Regional Weather Roundup
Issued by NWS Wakefield, VA

Home | Current Version | Previous Version | Graphics & Text | Print | Product List | Glossary On
Versions: 1 2 3 4 5 6 7 8 9 10 11 12 13 14 15 16 17 18 19 20 21 22 23 24 25 26 27 28 29 30 31 32 33 34 35 36 37 38 39 40 41 42 43 44 45 46 47 48 49 50
000
ASUS41 KAKQ 210715
RWRAKQ

REGIONAL WEATHER ROUNDUP
NATIONAL WEATHER SERVICE WAKEFIELD VA
200 AM EST WED FEB 21 2018

Note: "fair" indicates few or no clouds below 12,000 feet with no
significant weather and/or obstructions to visibility. * = Denotes
station may not report precipitation (e.g., rain,snow,etc.),
thunder or fog.

VAZ042-051-052>054-056-210800-
NORTHERN VIRGINIA

CITY           SKY/WX    TMP DP  RH WIND       PRES   REMARKS
WASH NATIONAL  MOCLDY    60  57  89 S13       30.34S
DULLES         FAIR      61  58  90 S9        30.32S
FORT BELVOIR   FAIR      62  58  85 S5        30.34S
QUANTICO       FAIR      54  54 100 SW7       30.36S
FREDERICKSBRG* FAIR      62  62 100 SW9       30.35F
STAFFORD*      FAIR      63  63 100 S6        30.39F
WARRENTON      FAIR      64  56  75 SW9       30.33S
CULPEPER*      FAIR      63  57  82 S8        30.34F
MANASSAS*      FAIR      62  57  83 S7        30.34S
LEESBURG*      FAIR      61  59  94 S7        30.32S
WINCHESTER     FAIR      59  52  77 SW3       30.32R
FRONT ROYAL*   FAIR      63  54  72 S5        30.30S
LURAY*         FAIR      61  54  77 S8        30.33S
$$

VAZ048-049-060>072-079>083-210800-
CENTRAL AND SOUTH CENTRAL VIRGINIA

CITY           SKY/WX    TMP DP  RH WIND       PRES   REMARKS
RICHMOND       FAIR      63  61  93 S12       30.39F
CHESTERFIELD*  FAIR      63  61  93 S7        30.40S
PETERSBURG*    NOT AVBL
HANOVER        FAIR      63  61  93 S9        30.39S
TAPPAHANNOCK*  FAIR      64  63  94 S7        30.39S
QUINTON*       FAIR      63  63 100 S6        30.40S
CHARLOTTSVILLE FAIR      62  57  83 S10       30.35S
GORDONSVILLE*  FAIR      58  58 100 SW6       30.35F
ORANGE*        FAIR      59  55  88 CALM      30.36S
LOUISA*        CLOUDY    61  58  91 S5        30.40F
BUMPASS*       PTSUNNY   59  58  95 SE5       30.37F
FARMVILLE*     FOG      N/A N/A N/A CALM      30.37F VSB 1
CREWE*         FAIR      61  61 100 S3        30.40S
FORT PICKETT*  FAIR      61  61 100 S6        30.41S
CHASE CITY*    FAIR      59  59 100 CALM      30.41S
CLARKSVILLE*   FAIR      63  63 100 S6        30.40F
SOUTH HILL*    FAIR      60  60 100 S7        30.47S
LAWRENCEVILLE* FAIR      62  61  97 S6        30.41S
EMPORIA*       CLOUDY    61  61 100 SE3       30.44S FOG
$$

VAZ088>098-210800-
SOUTHEAST VIRGINIA

CITY           SKY/WX    TMP DP  RH WIND       PRES   REMARKS
NORFOLK        CLOUDY    66  64  93 S13       30.43S
VIRGINIA BEACH FAIR      65  62  90 S9        30.43S
NORFOLK NAVAL  MOCLDY    67  63  87 S9        30.44S
WEST POINT*    FAIR      63  61  93 S7        30.42S
SALUDA*        FAIR      63  63 100 SW8       30.40S
NEWPORT NEWS   CLOUDY    65  63  93 S12       30.42S
LANGLEY AFB    CLOUDY    65  65 100 SW12      30.42F
FORT EUSTIS    DRIZZLE   63  63 100 S5        30.40S
WILLIAMSBURG*  FAIR      63  63 100 S7        30.43S
HR EXEC AP*    CLOUDY    66  64  93 SW12      30.44S
FRANKLIN*      CLOUDY    63  63  98 S7        30.44S
US460-WAKEFLD  MOCLDY    62  62 100 VRB5      30.43R
$$

VAZ020-022-025-037-045-210800-
WEST CENTRAL AND SOUTHWEST VIRGINIA

CITY           SKY/WX    TMP DP  RH WIND       PRES   REMARKS
STAUNTON*      FAIR      52  50  94 CALM      30.38S
WAYNESBORO*    FAIR      61  55  78 SW8       30.37S
HOT SPRINGS VA FAIR      53  50  91 SW12      30.42F
LYNCHBURG      FOG       50  50 100 CALM      30.40S VSB 1/4
DANVILLE       MOCLDY    53  53 100 CALM      30.42R FOG
SOUTH BOSTON*  FAIR      59  58  95 CALM      30.40F
MARTINSVILLE   CLOUDY    50  49  97 CALM      30.44S FOG
ROANOKE        FAIR      53  51  93 CALM      30.42S
BLACKSBURG     FAIR      49  49 100 CALM      30.44F FOG
DUBLIN*        FAIR      53  52  97 CALM      30.43S
MARION*        CLOUDY    58  53  81 CALM      30.42F
HILLSVILLE*    MOCLDY    58  56  93 S6        30.42S
RICHLANDS*     CLOUDY    62  52  69 S5        30.38S
WISE*          MOCLDY    63  54  72 S12G21    30.36S
ABINGDON*      MOCLDY    60  53  77 CALM      30.36F
$$

MDZ021>025-VAZ099-100-210800-
SOUTHERN MARYLAND AND THE DELMARVA PENINSULA

CITY           SKY/WX    TMP DP  RH WIND       PRES   REMARKS
PATUXENT RIVER FAIR      63  62  97 SW12      30.36S
BAY BRIDGE APT FAIR      57  57 100 S9        30.34S
LEONARDTOWN    FAIR      63  61  94 SW7       30.38S
DOVER          FAIR      60  59  95 S7        30.35S
GEORGETOWN     CLOUDY    65  62  90 SW10      30.38S
EASTON         MOCLDY    63  59  88 SW9       30.39F
CAMBRIDGE      PTCLDY    57  55  94 S6        30.38R FOG
SALISBURY      FAIR      64  62  93 SW13      30.39R
OCEAN CITY     MOCLDY    53  53 100 VRB7      30.40F FOG
WALLOPS ISLAND FOG      N/A N/A N/A S8        30.41F VSB 1/2
ACCOMACK*      FAIR      62  62  97 S8        30.41S
$$

NCZ012>017-030>032-210800-
NORTH CENTRAL AND EASTERN NORTH CAROLINA

CITY           SKY/WX    TMP DP  RH WIND       PRES   REMARKS
ROANOKE RAPIDS PTSUNNY   63  63 100 S5        30.43F
RALEIGH        MOCLDY    63  62  97 S9        30.43F
ELIZABETH CITY FAIR      65  65 100 S10       30.45F
AHOSKIE*       FAIR      63  63 100 S3        30.45S
EDENTON*       FAIR      64  63  96 S6        30.46S FOG
CURRITUCK*     MOCLDY    61  60  96 S6        30.46S
KILL DEVIL HLS FOG      N/A N/A N/A CALM      30.46F VSB 1
MANTEO         FOG       58  58 100 S5        30.48S VSB 1/2
CAPE HATTERAS  CLOUDY    65  65 100 S7        30.48F
TARBORO*       NOT AVBL
GOLDSBORO      FAIR      64  63  97 CALM      30.43F
WASHINGTON     FAIR      64  64  97 CALM      30.46F FOG
GREENVILLE     CLOUDY    64  64 100 SW7       30.45F
NEW BERN       FAIR      65  65 100 S5        30.47F
WILMINGTON     FOG       62  62 100 S3        30.46F VSB 3/4
$$

VAZ048-210800-
ELSEWHERE

CITY           SKY/WX    TMP DP  RH WIND       PRES   REMARKS
HARRISBURG PA  FAIR      51  48  89 VRB3      30.28S
BALTIMORE      FAIR      57  56  96 S3        30.32S
ANNAPOLIS      FOG       54  54 100 S5        30.34S VSB 3/4
ANDREWS AFB    CLEAR     62  58  88 SW13      30.32F
PHILADELPHIA   FAIR      57  57 100 S7        30.33S FOG
HENDERSON NC   FAIR      59  58  95 S7        30.42S
GREENSBORO     MOCLDY    59  59 100 SW7       30.41S
ROCKY MOUNT    CLOUDY    63  63 100 S5        30.44S FOG
$$

VAZ100-210800-
MARINE

STATION/POSITION TIME  TEMP    WIND        PRES    WAVE   SWELL
                       AIR SEA DIR/SP/G            HT/PER HT/PER
                 (UTC) (F)     (DEG/KT/KT) (MB)    (FT/S) (FT/S)
BRANDYWINE LGT   0642   48     180/ 17/ 18 1028.8R
CAPE MAY NJ      0648   51 44  160/  8/ 11 1028.4S
LEWES DE         0642   62 43  220/  5/  9 1028.6S
15NM E FENWICK I 0650   45 42  190/ 12/ 14 1030.0F   3/12   2/12
OCEAN-CITY-INLET 0648   43 40  210/ 10/ 12 1029.9F
WACHAPREAGUE VA  0648   55 51  210/  8/ 11 1030.1S
THOMAS POINT MD  0700   48 39  190/ 12/ 13   N/A
GOOSES REEF MD   0700   46     160/ 10/ 12 1028.5
COVE POINT MD    0648   54     180/ 10/ 11 1028.8F
SOLOMONS ISLAND  0648   57 42  210/  4/  8 1028.0R
BISHOPS HEAD MD  0648   53 51  180/ 12/ 14 1029.2F
PINEY POINT MD   0648          240/ 13/ 14   N/A
POTOMAC MD       0700   54 43  360/  8/ 10 1028.3    0
CAMBRIDGE MD     0648   59 46              1029.2S
LEWISETTA VA     0648   64 49  230/ 14/ 19 1028.6R
RAPPAHANNOCK LGT 0648          180/ 14/ 15 1030.4F
STINGRAY PT      0700   55 43  240/  8/ 10 1031.7
YORK RVR RNG VA  0648   58     220/ 17/ 19 1030.4F
YORKTOWN VA      0648   65 45  200/  9/ 14 1029.7R
DOMINION TERM VA 0648   59     210/ 11/ 12 1030.6F
KIPTOPEKE VA     0648      44  180/  7/  8   N/A
CAPE HENRY VA    0648   66     190/  8/ 13   N/A
S CRANEY ISL VA  0648   64     200/ 10/ 12 1030.4S
CAPE HENRY BUOY  0630      45                N/A     3/12   2/12
1ST LANDING BUOY 0700   53 42  190/ 10/ 10 1030.5    1/ 5
CAPE CHARLES BUO 0651      44                N/A     2/12   2/12
64NM E OF VA BCH 0650   57 53  200/ 12/ 14 1032.0F   3/12   3/12
DUCK PIER NC     0648   63 44  190/ 11/ 13 1031.0F
44100 DUCK FRF   0645      45                N/A     3/13   2/13
44056 DUCK FRF   0630      46                N/A     3/12   2/12
OREGON INLET NC  0642   60 58  170/  8/  9 1032.1F
HATTERAS NC      0648   65 59  180/  4/  8 1032.0F
DIAMOND SHLS NC  0650   72 71  190/ 12/ 14 1032.5F   4/11   3/11
CAPE LOOKOUT NC  0700          190/  6/  7 1032.0F
$$



USA.gov is the U.S. government's official web portal to all federal, state and local government web resources and services.